When you browse on this site, cookies collect data to enhance your experience and personalize the content and advertising you see.
Visit our Privacy Policy to learn more. By continuing to use the site, you agree to this use of cookies and data.
  • In Schweiz
  • Länderverzeichnis
  • Für 7 Tage
  • Wassertemperatur
  • Satellitenkarten
  • Wetterkarte
  • Widgets
  • user-avatar
    Anmelden

    Stündliche Wetter Tomashivka

    Heute, 22 April, Montag

    Zeit Temperatur Niederschläge Wind Luftdruck Luftfeuchtigkeit
    00:00 +6°C° 0 mm 4 m/S 765 mmHg 53%
    01:00 +6°C° 0 mm 4 m/S 765 mmHg 55%
    02:00 +6°C° 0 mm 4 m/S 765 mmHg 58%
    03:00 +6°C° 0 mm 4 m/S 765 mmHg 62%
    04:00 +5°C° 0 mm 4 m/S 765 mmHg 66%
    05:00 +5°C° 0 mm 4 m/S 765 mmHg 69%
    06:00 +7°C° 0 mm 5 m/S 766 mmHg 65%
    07:00 +8°C° 0 mm 5 m/S 766 mmHg 60%
    08:00 +10°C° 0 mm 6 m/S 766 mmHg 55%
    09:00 +11°C° 0 mm 7 m/S 766 mmHg 51%
    10:00 +11°C° 0 mm 7 m/S 766 mmHg 46%
    11:00 +12°C° 0 mm 8 m/S 766 mmHg 42%
    12:00 +12°C° 0 mm 8 m/S 766 mmHg 41%
    13:00 +12°C° 0 mm 8 m/S 766 mmHg 41%
    14:00 +12°C° 0 mm 8 m/S 766 mmHg 41%
    15:00 +12°C° 0 mm 8 m/S 767 mmHg 42%
    16:00 +11°C° 0 mm 7 m/S 767 mmHg 44%
    17:00 +11°C° 0 mm 6 m/S 767 mmHg 45%
    18:00 +10°C° 0 mm 5 m/S 767 mmHg 49%
    19:00 +8°C° 0 mm 4 m/S 767 mmHg 54%
    20:00 +8°C° 0 mm 3 m/S 768 mmHg 58%
    21:00 +8°C° 0 mm 3 m/S 768 mmHg 58%
    22:00 +8°C° 0 mm 3 m/S 768 mmHg 59%
    23:00 +8°C° 0 mm 3 m/S 768 mmHg 60%

    Morgen, 23 April, Dienstag

    Zeit Temperatur Niederschläge Wind Luftdruck Luftfeuchtigkeit
    00:00 +8°C° 0 mm 3 m/S 768 mmHg 62%
    01:00 +7°C° 0 mm 4 m/S 769 mmHg 64%
    02:00 +7°C° 0 mm 4 m/S 769 mmHg 66%
    03:00 +6°C° 0 mm 4 m/S 769 mmHg 67%
    04:00 +6°C° 0 mm 4 m/S 769 mmHg 67%
    05:00 +6°C° 0 mm 4 m/S 769 mmHg 68%
    06:00 +8°C° 0 mm 4 m/S 769 mmHg 64%
    07:00 +9°C° 0 mm 5 m/S 770 mmHg 60%
    08:00 +12°C° 0 mm 5 m/S 770 mmHg 56%
    09:00 +13°C° 0 mm 5 m/S 770 mmHg 52%
    10:00 +14°C° 0 mm 6 m/S 771 mmHg 47%
    11:00 +15°C° 0 mm 6 m/S 771 mmHg 43%
    12:00 +15°C° 0 mm 6 m/S 771 mmHg 41%
    13:00 +15°C° 0 mm 6 m/S 770 mmHg 40%
    14:00 +15°C° 0 mm 6 m/S 770 mmHg 38%
    15:00 +14°C° 0 mm 6 m/S 770 mmHg 40%
    16:00 +14°C° 0 mm 6 m/S 770 mmHg 41%
    17:00 +13°C° 0 mm 5 m/S 770 mmHg 43%
    18:00 +12°C° 0 mm 4 m/S 770 mmHg 48%
    19:00 +10°C° 0 mm 4 m/S 771 mmHg 52%
    20:00 +8°C° 0 mm 3 m/S 771 mmHg 57%
    21:00 +8°C° 0 mm 3 m/S 771 mmHg 58%
    22:00 +8°C° 0 mm 3 m/S 771 mmHg 58%
    23:00 +8°C° 0 mm 3 m/S 771 mmHg 59%

    übermorgen, 24 April, Mittwoch

    Zeit Temperatur Niederschläge Wind Luftdruck Luftfeuchtigkeit
    00:00 +8°C° 0 mm 3 m/S 771 mmHg 60%
    01:00 +7°C° 0 mm 3 m/S 771 mmHg 62%
    02:00 +7°C° 0 mm 3 m/S 771 mmHg 63%
    03:00 +7°C° 0 mm 3 m/S 771 mmHg 65%
    04:00 +7°C° 0 mm 3 m/S 771 mmHg 67%
    05:00 +6°C° 0 mm 4 m/S 771 mmHg 69%
    06:00 +8°C° 0 mm 4 m/S 771 mmHg 65%
    07:00 +10°C° 0 mm 5 m/S 771 mmHg 60%
    08:00 +13°C° 0 mm 5 m/S 771 mmHg 56%
    09:00 +14°C° 0 mm 5 m/S 772 mmHg 51%
    10:00 +15°C° 0 mm 5 m/S 772 mmHg 47%
    11:00 +16°C° 0 mm 5 m/S 772 mmHg 43%
    12:00 +17°C° 0 mm 5 m/S 772 mmHg 42%
    13:00 +17°C° 0 mm 5 m/S 771 mmHg 42%
    14:00 +17°C° 0 mm 5 m/S 771 mmHg 41%
    15:00 +16°C° 0 mm 5 m/S 771 mmHg 43%
    16:00 +15°C° 0 mm 4 m/S 771 mmHg 44%
    17:00 +15°C° 0 mm 4 m/S 771 mmHg 46%
    18:00 +13°C° 0 mm 4 m/S 771 mmHg 49%
    19:00 +12°C° 0 mm 3 m/S 771 mmHg 52%
    20:00 +10°C° 0 mm 3 m/S 771 mmHg 55%
    21:00 +10°C° 0 mm 2 m/S 771 mmHg 56%
    22:00 +10°C° 0 mm 1 m/S 772 mmHg 57%
    23:00 +10°C° 0 mm 1 m/S 772 mmHg 58%

    25 April, Donnerstag

    Zeit Temperatur Niederschläge Wind Luftdruck Luftfeuchtigkeit
    00:00 +10°C° 0 mm 1 m/S 772 mmHg 58%
    01:00 +10°C° 0 mm 1 m/S 772 mmHg 58%
    02:00 +9°C° 0 mm 0 m/S 772 mmHg 59%
    03:00 +10°C° 0 mm 1 m/S 771 mmHg 58%
    04:00 +10°C° 0 mm 1 m/S 771 mmHg 58%
    05:00 +9°C° 0 mm 2 m/S 771 mmHg 57%
    06:00 +10°C° 0 mm 2 m/S 771 mmHg 53%
    07:00 +13°C° 0 mm 2 m/S 771 mmHg 50%
    08:00 +15°C° 0 mm 2 m/S 772 mmHg 46%
    09:00 +17°C° 0 mm 2 m/S 771 mmHg 44%
    10:00 +18°C° 0 mm 2 m/S 771 mmHg 42%
    11:00 +19°C° 0 mm 2 m/S 771 mmHg 40%
    12:00 +20°C° 0 mm 2 m/S 771 mmHg 39%
    13:00 +20°C° 0 mm 2 m/S 771 mmHg 39%
    14:00 +21°C° 0 mm 2 m/S 770 mmHg 38%
    15:00 +21°C° 0 mm 2 m/S 770 mmHg 40%
    16:00 +20°C° 0 mm 2 m/S 770 mmHg 42%
    17:00 +20°C° 0 mm 2 m/S 770 mmHg 44%
    18:00 +19°C° 0 mm 1 m/S 770 mmHg 47%
    19:00 +16°C° 0 mm 1 m/S 770 mmHg 50%
    20:00 +15°C° 0 mm 1 m/S 770 mmHg 54%
    21:00 +14°C° 0 mm 1 m/S 769 mmHg 55%
    22:00 +14°C° 0 mm 1 m/S 769 mmHg 56%
    23:00 +13°C° 0 mm 1 m/S 769 mmHg 57%

    26 April, Freitag

    Zeit Temperatur Niederschläge Wind Luftdruck Luftfeuchtigkeit
    00:00 +12°C° 0 mm 0 m/S 769 mmHg 59%
    01:00 +11°C° 0 mm 0 m/S 768 mmHg 60%
    02:00 +11°C° 0 mm 0 m/S 768 mmHg 62%
    03:00 +11°C° 0 mm 0 m/S 768 mmHg 63%
    04:00 +11°C° 0 mm 0 m/S 768 mmHg 64%
    05:00 +12°C° 0 mm 1 m/S 768 mmHg 65%
    06:00 +14°C° 0 mm 1 m/S 768 mmHg 61%
    07:00 +16°C° 0 mm 1 m/S 768 mmHg 56%
    08:00 +18°C° 0 mm 2 m/S 768 mmHg 52%
    09:00 +19°C° 0 mm 2 m/S 767 mmHg 49%
    10:00 +21°C° 0 mm 3 m/S 767 mmHg 46%
    11:00 +22°C° 0 mm 3 m/S 767 mmHg 43%
    12:00 +22°C° 0 mm 4 m/S 767 mmHg 42%
    13:00 +23°C° 0 mm 4 m/S 766 mmHg 41%
    14:00 +23°C° 0 mm 4 m/S 766 mmHg 40%
    15:00 +22°C° 0 mm 4 m/S 766 mmHg 42%
    16:00 +22°C° 0 mm 4 m/S 765 mmHg 45%
    17:00 +21°C° 0 mm 4 m/S 765 mmHg 47%
    18:00 +19°C° 0 mm 3 m/S 765 mmHg 52%
    19:00 +17°C° 0 mm 3 m/S 765 mmHg 57%
    20:00 +14°C° 0 mm 3 m/S 765 mmHg 62%
    21:00 +14°C° 0 mm 3 m/S 765 mmHg 63%
    22:00 +14°C° 0 mm 2 m/S 765 mmHg 64%
    23:00 +14°C° 0 mm 2 m/S 764 mmHg 64%

    27 April, Samstag

    Zeit Temperatur Niederschläge Wind Luftdruck Luftfeuchtigkeit
    00:00 +13°C° 0 mm 2 m/S 764 mmHg 65%
    01:00 +13°C° 0 mm 2 m/S 764 mmHg 66%
    02:00 +13°C° 0 mm 2 m/S 764 mmHg 67%
    03:00 +12°C° 0 mm 3 m/S 764 mmHg 69%
    04:00 +12°C° 0 mm 3 m/S 764 mmHg 71%
    05:00 +11°C° 0 mm 3 m/S 764 mmHg 74%
    06:00 +13°C° 0 mm 3 m/S 764 mmHg 69%
    07:00 +16°C° 0 mm 3 m/S 764 mmHg 65%
    08:00 +18°C° 0 mm 4 m/S 764 mmHg 61%
    09:00 +19°C° 0 mm 4 m/S 764 mmHg 56%
    10:00 +20°C° 0 mm 5 m/S 764 mmHg 51%
    11:00 +21°C° 0 mm 5 m/S 764 mmHg 45%
    12:00 +21°C° 0 mm 6 m/S 763 mmHg 45%
    13:00 +21°C° 0 mm 6 m/S 763 mmHg 44%
    14:00 +21°C° 0 mm 6 m/S 763 mmHg 43%
    15:00 +20°C° 0 mm 6 m/S 763 mmHg 45%
    16:00 +19°C° 0 mm 6 m/S 763 mmHg 47%
    17:00 +17°C° 0 mm 5 m/S 763 mmHg 49%
    18:00 +16°C° 0 mm 5 m/S 763 mmHg 54%
    19:00 +14°C° 0 mm 4 m/S 763 mmHg 59%
    20:00 +12°C° 0 mm 3 m/S 763 mmHg 65%
    21:00 +12°C° 0 mm 3 m/S 763 mmHg 66%
    22:00 +12°C° 0 mm 3 m/S 763 mmHg 66%
    23:00 +12°C° 0 mm 3 m/S 763 mmHg 67%
    Mehr zeigen